Location: DARK SKY Beskydy - Park tmavé oblohy, www.darkskybeskydy.cz
(49.4926°N, 18.5016°E)
Time: 23:46:58
(UTC+02:00)

S-56A Canister/Altair - All Passes

Search period start: 07 October 2024 00:00
Search period end: 17 October 2024 00:00
Orbit: 636 x 2487 km, 38.9° (Epoch: 06 October)

Date Brightness Start Highest point End Pass type
(mag) Time Alt. Az. Time Alt. Az. Time Alt. Az.
07 Oct - 11:16:23 10° S 11:20:12 15° SSE 11:23:26 10° SE daylight
07 Oct - 13:18:17 10° SW 13:23:13 25° S 13:27:12 10° ESE daylight
07 Oct - 15:22:06 10° WSW 15:25:57 22° SSW 15:29:23 10° SE daylight
08 Oct - 10:42:24 10° S 10:46:18 14° SSE 10:49:36 10° SE daylight
08 Oct - 12:44:03 10° SW 12:49:25 25° S 12:53:37 10° ESE daylight
08 Oct - 14:47:56 10° WSW 14:52:14 24° S 14:55:54 10° SE daylight
08 Oct - 16:54:02 10° SW 16:54:37 10° SSW 16:55:12 10° SSW daylight
09 Oct - 10:08:26 10° S 10:12:21 14° SSE 10:15:42 10° SE daylight
09 Oct - 12:09:45 10° SW 12:15:35 25° S 12:20:02 10° ESE daylight
09 Oct - 14:13:41 10° WSW 14:18:29 26° S 14:22:25 10° SE daylight
09 Oct - 16:18:58 10° SW 16:20:55 12° SSW 16:22:46 10° S daylight
10 Oct - 09:34:32 10° S 09:38:22 13° SSE 09:41:42 10° SE daylight
10 Oct - 11:35:24 10° SW 11:41:42 26° SSE 11:46:26 10° ESE daylight
10 Oct - 13:39:22 10° WSW 13:44:43 28° S 13:48:55 10° SE daylight
10 Oct - 15:44:25 10° WSW 15:47:12 15° SSW 15:49:46 10° S daylight
11 Oct - 09:00:41 10° S 09:04:21 13° SSE 09:07:33 10° SE daylight
11 Oct - 11:00:59 10° SW 11:07:45 26° SSE 11:12:49 10° ESE daylight
11 Oct - 13:04:57 10° WSW 13:10:55 30° S 13:15:25 10° SE daylight
11 Oct - 15:09:56 10° WSW 15:13:30 18° SSW 15:16:36 10° SSE daylight
12 Oct - 08:27:03 10° SSE 08:30:17 12° SSE 08:33:11 10° SE daylight
12 Oct - 10:26:32 10° SW 10:33:46 26° SSE 10:39:09 10° ESE daylight
12 Oct - 12:30:28 10° WSW 12:37:04 32° S 12:41:54 10° ESE daylight
12 Oct - 14:35:28 10° WSW 14:39:46 21° SSW 14:43:21 10° SSE daylight
13 Oct - 07:53:43 10° SSE 07:56:10 11° SE 07:58:27 10° SE daylight
13 Oct - 09:52:04 10° SSW 09:59:43 25° SSE 10:05:26 10° ESE daylight
13 Oct - 11:55:55 10° WSW 12:03:10 34° S 12:08:22 10° ESE daylight
13 Oct - 14:00:58 10° WSW 14:06:00 24° SSW 14:10:02 10° SSE daylight
14 Oct - 09:17:35 10° SSW 09:25:37 25° SSE 09:31:40 10° ESE daylight
14 Oct - 11:21:17 10° WSW 11:29:12 35° S 11:34:48 10° ESE daylight
14 Oct - 13:26:24 10° WSW 13:32:13 27° SSW 13:36:40 10° SE daylight
15 Oct - 08:43:08 10° SSW 08:51:29 24° SSE 08:57:49 10° ESE daylight
15 Oct - 10:46:36 10° SW 10:55:11 36° S 11:01:11 10° ESE daylight
15 Oct - 12:51:46 10° WSW 12:58:23 31° SSW 13:03:15 10° SE daylight
15 Oct - 14:58:28 10° WSW 15:00:39 12° SW 15:02:38 10° SSW daylight
16 Oct - 08:08:42 10° SSW 08:17:16 23° SSE 08:23:53 10° ESE daylight
16 Oct - 10:11:53 10° SW 10:21:06 36° S 10:27:32 10° ESE daylight
16 Oct - 12:17:03 10° WSW 12:24:29 34° SSW 12:29:47 10° SE daylight
16 Oct - 14:23:18 10° WSW 14:26:55 15° SW 14:30:00 10° S daylight
